Regional Weather Roundup
Issued by NWS

Home | Current Version | Previous Version | Graphics & Text | Print | Product List | Glossary On
Versions: 1 2 3 4 5 6 7 8 9 10 11 12 13 14 15 16 17 18 19 20 21 22 23 24 25 26 27 28 29 30 31 32 33 34 35 36 37 38 39 40 41 42 43 44 45 46 47 48 49 50
000
ASUS43 KLOT 201109
RWRIL

ILLINOIS REGIONAL WEATHER ROUNDUP
NATIONAL WEATHER SERVICE CHICAGO/ROMEOVILLE IL
600 AM CDT FRI OCT 20 2017

NOTE: "FAIR" INDICATES FEW OR NO CLOUDS BELOW 12,000 FEET WITH NO
SIGNIFICANT WEATHER AND/OR OBSTRUCTIONS TO VISIBILITY.

* THESE STATIONS ARE NOT UNDER NWS QUALITY CONTROL. THEY ALSO MAY NOT
  REPORT WEATHER SUCH AS PRECIPITATION OR FOG.

ILZ001-002-007-009-015-016-024-201200-
NORTHWEST ILLINOIS

CITY           SKY/WX    TMP DP  RH WIND       PRES   REMARKS
MOLINE         FAIR      53  47  79 CALM      30.11R
STERLING*      FAIR      46  44  93 SE3         N/A
SAVANNA*       FAIR      46  46  99 CALM      30.11S
$$

ILZ003-004-008-010-011-017-018-201200-
NORTH CENTRAL ILLINOIS

CITY           SKY/WX    TMP DP  RH WIND       PRES   REMARKS
ROCKFORD       FAIR      50  45  83 S5        30.15S
FREEPORT*      FAIR      52  47  83 S8        30.14R
ROCHELLE*      FAIR      49  47  92 S6        30.14S
DE KALB*       FAIR      49  46  90 S9        30.16S
PERU*          FAIR      51  47  85 S8        30.16R
$$

ILZ005-006-012>014-019>023-201200-
NORTHEAST ILLINOIS

CITY           SKY/WX    TMP DP  RH WIND       PRES   REMARKS
CHICAGO-OHARE  FAIR      51  46  83 CALM      30.16R
CHICAGO-MIDWAY FAIR      56  49  77 S6        30.17R
AURORA         FAIR      47  44  90 SE3       30.16S
LANSING*       FAIR      51  49  92 S3        30.19S
JOLIET*        FAIR      49  48  96 CALM      30.17S
WAUKEGAN       FAIR      54  46  74 SW8       30.14R
DUPAGE AIRPORT FAIR      49  47  93 S5        30.16R
KANKAKEE*      FAIR      53  48  84 CALM      30.20S
WHEELING       FAIR      49  45  86 CALM      30.17S
MORRIS*        FAIR      51  47  88 S5        30.16S
ROMEOVILLE*    FAIR      50  47  90 S8        30.17S
NORTHERLY ISL    N/A     59  47  64 S3          N/A
$$

LMZ740>746-201200-
SOUTHERN LAKE MICHIGAN

STATION/POSITION SKY/WX   TEMP    WIND        PRES    VSBY  WAVE
                          AIR SEA DIR/SP/G                  HT/PER
                          (F)     (DEG/KT/KT) (MB)    (MI)  (FT/S)
SOUTHERN BUOY              61 61  190/ 14/ 16 1021.2R         2/ 3
WILMETTE HARBOR            58 58  210/ 12/ 14   N/A           2/ 3
HARRISON CRIB              62     190/ 17/ 19   N/A
BURNHAM HARBOR             59     190/  4/  7   N/A
CALUMET HARBOR             56     170/  5/  6 1021.0R
BURNS HARBOR               57     180/ 10/ 15 1022.4R
MICHIGAN CITY              58     160/ 10/ 13   N/A
MICHIGAN CITY 6N           57 58  190/ 10/ 12   N/A           1/ 2
ST. JOSEPH                 58 58  180/ 10/ 14 1022.6          1/ 3
$$

ILZ025>027-034>036-040-047-049-050-058-095>099-201200-
WEST-CENTRAL ILLINOIS

CITY           SKY/WX    TMP DP  RH WIND       PRES   REMARKS
GALESBURG*     FAIR      60  56  88 S5        30.15R
MACOMB*        FAIR      54  48  82 S6        30.17R
JACKSONVILLE*  FAIR      56  49  77 S8        30.18R
PITTSFIELD*    FAIR      52  49  88 S5        30.18R
$$

ILZ028>032-037-038-041>044-048-051>054-059>061-201200-
CENTRAL ILLINOIS

CITY           SKY/WX    TMP DP  RH WIND       PRES   REMARKS
PONTIAC        FAIR      51  51  98 SE3       30.19R
BLOOMINGTON    FAIR      51  48  89 S8        30.20R
DECATUR        FAIR      53  48  83 S6        30.21R
PEORIA         FAIR      54  50  86 S3        30.17R
LACON*         FAIR      54  49  83 SE5       30.15R
LINCOLN*       FAIR      51  50  93 S5        30.19R
SPRINGFIELD    FAIR      57  51  80 S7        30.19R
TAYLORVILLE    FAIR      53  49  86 S6        30.20S
$$

ILZ033-039-045-046-055>057-062-063-201200-
EAST-CENTRAL ILLINOIS

CITY           SKY/WX    TMP DP  RH WIND       PRES   REMARKS
CHAMPAIGN      FAIR      49  45  86 SE6       30.22R
DANVILLE*      FAIR      51  49  93 SE3       30.20S
RANTOUL*       FAIR      51  49  93 SE3       30.21S
MATTOON        FAIR      55  52  89 S8        30.21R
PARIS*         FAIR      51  49  92 S5        30.24S
$$

ILZ079-100>102-201200-
SOUTHWEST ILLINOIS

CITY           SKY/WX    TMP DP  RH WIND       PRES   REMARKS
ALTON          FAIR      46  46 100 CALM      30.21R
BELLEVILLE     CLEAR     48  47  95 CALM      30.23R
CAHOKIA*       FAIR      48  45  89 CALM      30.19R
SPARTA*        FAIR      49  47  95 SE3       30.22R
$$

ILZ064>066-069>071-074>076-080>082-084>086-088>090-092>094-201200-
SOUTH-CENTRAL ILLINOIS

CITY           SKY/WX    TMP DP  RH WIND       PRES   REMARKS
CARBONDALE     FAIR      47  47 100 SE5       30.23R
CAIRO*         FAIR      44  44 100 CALM      30.25R FOG
EFFINGHAM*     FAIR      50  50  99 CALM      30.24R
MARION         FAIR      52  51  97 S5        30.25R
MT. VERNON     FAIR      43  42  97 CALM      30.23S FOG
CENTRALIA*     FAIR      50  49  97 SE3       30.22R
SALEM*         FAIR      51  49  94 CALM      30.22S
METROPOLIS*    FAIR      46  46  99 CALM      30.26R FOG
$$

ILZ067-068-072-073-078-083-087-091-201200-
SOUTHEAST ILLINOIS

CITY           SKY/WX    TMP DP  RH WIND       PRES   REMARKS
LAWRENCEVILLE  FAIR      50  48  93 CALM      30.25R FOG
FLORA*         FAIR      49  48  96 CALM      30.24R
FAIRFIELD*     FAIR      50  49  99 CALM      30.23R
HARRISBURG*    FOG       45  45 100 CALM      30.25R VSB 1
ROBINSON*      FAIR      44  44 100 CALM      30.25R
CARMI*         FOG       45  45 100 S3        30.24R VSB 3/4
$$

ABBREVIATIONS USED IN REMARKS
   TC - TEMPERATURE IN CELSIUS
  WCI - WIND CHILL INDEX
   HX - HEAT INDEX
  VSB - VISIBILITY
$$




USA.gov is the U.S. government's official web portal to all federal, state and local government web resources and services.